When you browse on this site, cookies collect data to enhance your experience and personalize the content and advertising you see.
Visit our Privacy Policy to learn more. By continuing to use the site, you agree to this use of cookies and data.
  • In Latvia
  • List of Countries
  • For 7 days
  • Water Temperature
  • Weather Map
  • Weather Widgets
  • user-avatar
    Login

    Hourly Weather Makowisko

    Today, 19 September, Thursday

    Time Temperature Precipitation Wind Pressure Humidity
    00:00 +6°C° 0 mm 4 mps 749 mmHg 75%
    01:00 +6°C° 0 mm 4 mps 749 mmHg 77%
    02:00 +5°C° 0 mm 3 mps 749 mmHg 77%
    03:00 +5°C° 0 mm 3 mps 749 mmHg 80%
    04:00 +5°C° 0 mm 3 mps 749 mmHg 84%
    05:00 +4°C° 0 mm 3 mps 749 mmHg 87%
    06:00 +5°C° 0.1 mm 4 mps 749 mmHg 86%
    07:00 +6°C° 0.1 mm 4 mps 749 mmHg 85%
    08:00 +7°C° 0.1 mm 4 mps 749 mmHg 84%
    09:00 +8°C° 0 mm 5 mps 750 mmHg 76%
    10:00 +10°C° 0 mm 5 mps 750 mmHg 67%
    11:00 +12°C° 0 mm 5 mps 750 mmHg 59%
    12:00 +13°C° 0 mm 5 mps 750 mmHg 55%
    13:00 +14°C° 0 mm 5 mps 749 mmHg 52%
    14:00 +15°C° 0 mm 5 mps 749 mmHg 49%
    15:00 +14°C° 0 mm 5 mps 749 mmHg 50%
    16:00 +14°C° 0 mm 4 mps 749 mmHg 52%
    17:00 +14°C° 0 mm 4 mps 749 mmHg 54%
    18:00 +12°C° 0.1 mm 4 mps 749 mmHg 62%
    19:00 +10°C° 0.1 mm 3 mps 750 mmHg 71%
    20:00 +8°C° 0.1 mm 3 mps 750 mmHg 80%
    21:00 +8°C° 0.1 mm 3 mps 750 mmHg 82%
    22:00 +7°C° 0.1 mm 3 mps 750 mmHg 85%
    23:00 +7°C° 0.1 mm 3 mps 750 mmHg 87%

    Tomorrow, 20 September, Friday

    Time Temperature Precipitation Wind Pressure Humidity
    00:00 +7°C° 0.3 mm 3 mps 750 mmHg 89%
    01:00 +5°C° 0.3 mm 3 mps 751 mmHg 91%
    02:00 +5°C° 0.3 mm 4 mps 751 mmHg 93%
    03:00 +5°C° 0 mm 3 mps 751 mmHg 93%
    04:00 +4°C° 0 mm 3 mps 751 mmHg 94%
    05:00 +4°C° 0 mm 3 mps 751 mmHg 95%
    06:00 +4°C° 0 mm 3 mps 751 mmHg 93%
    07:00 +5°C° 0 mm 4 mps 751 mmHg 91%
    08:00 +6°C° 0 mm 4 mps 751 mmHg 90%
    09:00 +7°C° 0 mm 4 mps 752 mmHg 80%
    10:00 +9°C° 0 mm 5 mps 752 mmHg 70%
    11:00 +10°C° 0 mm 5 mps 752 mmHg 60%
    12:00 +12°C° 0.1 mm 5 mps 752 mmHg 56%
    13:00 +13°C° 0.1 mm 5 mps 752 mmHg 52%
    14:00 +13°C° 0.1 mm 5 mps 751 mmHg 48%
    15:00 +13°C° 0.1 mm 5 mps 751 mmHg 50%
    16:00 +13°C° 0.1 mm 4 mps 751 mmHg 53%
    17:00 +13°C° 0.1 mm 4 mps 751 mmHg 55%
    18:00 +11°C° 0 mm 3 mps 752 mmHg 61%
    19:00 +9°C° 0 mm 2 mps 752 mmHg 67%
    20:00 +8°C° 0 mm 2 mps 752 mmHg 73%
    21:00 +7°C° 0 mm 2 mps 752 mmHg 75%
    22:00 +7°C° 0 mm 2 mps 752 mmHg 76%
    23:00 +6°C° 0 mm 2 mps 753 mmHg 78%

    Day after tomorrow, 21 September, Saturday

    Time Temperature Precipitation Wind Pressure Humidity
    00:00 +6°C° 0 mm 2 mps 752 mmHg 79%
    01:00 +6°C° 0 mm 2 mps 752 mmHg 80%
    02:00 +6°C° 0 mm 2 mps 752 mmHg 81%
    03:00 +5°C° 0 mm 2 mps 752 mmHg 82%
    04:00 +5°C° 0 mm 2 mps 752 mmHg 83%
    05:00 +5°C° 0 mm 2 mps 752 mmHg 84%
    06:00 +6°C° 0 mm 2 mps 752 mmHg 80%
    07:00 +7°C° 0 mm 3 mps 752 mmHg 76%
    08:00 +8°C° 0 mm 3 mps 752 mmHg 72%
    09:00 +10°C° 0 mm 3 mps 752 mmHg 65%
    10:00 +12°C° 0 mm 4 mps 752 mmHg 58%
    11:00 +14°C° 0 mm 4 mps 752 mmHg 52%
    12:00 +15°C° 0 mm 4 mps 752 mmHg 50%
    13:00 +17°C° 0 mm 4 mps 751 mmHg 48%
    14:00 +18°C° 0 mm 4 mps 751 mmHg 46%
    15:00 +18°C° 0 mm 4 mps 750 mmHg 48%
    16:00 +17°C° 0 mm 4 mps 750 mmHg 50%
    17:00 +17°C° 0 mm 3 mps 750 mmHg 53%
    18:00 +14°C° 0 mm 3 mps 750 mmHg 57%
    19:00 +14°C° 0 mm 2 mps 750 mmHg 61%
    20:00 +12°C° 0 mm 2 mps 750 mmHg 66%
    21:00 +10°C° 0 mm 2 mps 750 mmHg 66%
    22:00 +10°C° 0 mm 2 mps 750 mmHg 66%
    23:00 +9°C° 0 mm 3 mps 750 mmHg 66%

    22 September, Sunday

    Time Temperature Precipitation Wind Pressure Humidity
    00:00 +9°C° 0 mm 3 mps 750 mmHg 65%
    01:00 +9°C° 0 mm 3 mps 750 mmHg 65%
    02:00 +9°C° 0 mm 3 mps 749 mmHg 64%
    03:00 +8°C° 0 mm 2 mps 749 mmHg 65%
    04:00 +8°C° 0 mm 2 mps 749 mmHg 66%
    05:00 +8°C° 0 mm 2 mps 749 mmHg 67%
    06:00 +9°C° 0 mm 2 mps 749 mmHg 65%
    07:00 +10°C° 0 mm 2 mps 749 mmHg 63%
    08:00 +12°C° 0 mm 1 mps 749 mmHg 61%
    09:00 +14°C° 0 mm 2 mps 749 mmHg 55%
    10:00 +16°C° 0 mm 2 mps 749 mmHg 49%
    11:00 +18°C° 0 mm 2 mps 749 mmHg 44%
    12:00 +19°C° 0 mm 2 mps 748 mmHg 41%
    13:00 +20°C° 0 mm 2 mps 748 mmHg 39%
    14:00 +21°C° 0 mm 2 mps 747 mmHg 37%
    15:00 +22°C° 0 mm 1 mps 747 mmHg 41%
    16:00 +22°C° 0 mm 1 mps 746 mmHg 45%
    17:00 +21°C° 0 mm 1 mps 746 mmHg 48%
    18:00 +18°C° 0 mm 2 mps 746 mmHg 52%
    19:00 +16°C° 0 mm 2 mps 746 mmHg 56%
    20:00 +14°C° 0 mm 2 mps 745 mmHg 60%
    21:00 +13°C° 0 mm 2 mps 745 mmHg 62%
    22:00 +13°C° 0 mm 2 mps 745 mmHg 63%
    23:00 +12°C° 0 mm 2 mps 745 mmHg 65%

    23 September, Monday

    Time Temperature Precipitation Wind Pressure Humidity
    00:00 +11°C° 0 mm 3 mps 745 mmHg 62%
    01:00 +12°C° 0 mm 3 mps 744 mmHg 60%
    02:00 +12°C° 0 mm 3 mps 744 mmHg 58%
    03:00 +12°C° 0 mm 3 mps 744 mmHg 60%
    04:00 +12°C° 0 mm 3 mps 744 mmHg 62%
    05:00 +13°C° 0 mm 3 mps 743 mmHg 64%
    06:00 +13°C° 0 mm 3 mps 743 mmHg 70%
    07:00 +13°C° 0 mm 3 mps 742 mmHg 76%
    08:00 +13°C° 0 mm 3 mps 742 mmHg 82%
    09:00 +13°C° 0.1 mm 3 mps 742 mmHg 82%
    10:00 +13°C° 0.1 mm 3 mps 742 mmHg 82%
    11:00 +14°C° 0.1 mm 3 mps 742 mmHg 82%
    12:00 +16°C° 0 mm 3 mps 741 mmHg 78%
    13:00 +17°C° 0 mm 3 mps 741 mmHg 74%
    14:00 +18°C° 0 mm 3 mps 741 mmHg 70%
    15:00 +18°C° 0 mm 3 mps 740 mmHg 70%
    16:00 +18°C° 0 mm 3 mps 740 mmHg 70%
    17:00 +18°C° 0 mm 3 mps 740 mmHg 70%
    18:00 +17°C° 0 mm 3 mps 740 mmHg 74%
    19:00 +16°C° 0 mm 3 mps 740 mmHg 77%
    20:00 +14°C° 0 mm 3 mps 739 mmHg 81%
    21:00 +13°C° 0 mm 3 mps 739 mmHg 81%
    22:00 +13°C° 0 mm 4 mps 739 mmHg 80%
    23:00 +13°C° 0 mm 4 mps 739 mmHg 80%

    24 September, Tuesday

    Time Temperature Precipitation Wind Pressure Humidity
    00:00 +13°C° 0 mm 4 mps 739 mmHg 78%
    01:00 +14°C° 0 mm 4 mps 739 mmHg 77%
    02:00 +14°C° 0 mm 4 mps 739 mmHg 75%
    03:00 +14°C° 0 mm 4 mps 739 mmHg 79%
    04:00 +13°C° 0 mm 4 mps 739 mmHg 84%
    05:00 +13°C° 0 mm 4 mps 739 mmHg 88%
    06:00 +13°C° 0 mm 4 mps 739 mmHg 88%
    07:00 +13°C° 0 mm 4 mps 739 mmHg 89%
    08:00 +14°C° 0 mm 4 mps 739 mmHg 90%
    09:00 +14°C° 0 mm 4 mps 739 mmHg 89%
    10:00 +14°C° 0 mm 3 mps 739 mmHg 87%
    11:00 +14°C° 0 mm 3 mps 740 mmHg 86%
    12:00 +16°C° 0 mm 3 mps 740 mmHg 84%
    13:00 +16°C° 0 mm 3 mps 740 mmHg 81%
    14:00 +16°C° 0 mm 3 mps 740 mmHg 79%
    15:00 +15°C° 0 mm 4 mps 740 mmHg 81%
    16:00 +15°C° 0 mm 4 mps 740 mmHg 82%
    17:00 +15°C° 0 mm 4 mps 740 mmHg 84%
    18:00 +14°C° 0.1 mm 4 mps 740 mmHg 86%
    19:00 +14°C° 0.1 mm 4 mps 740 mmHg 87%
    20:00 +14°C° 0.1 mm 4 mps 741 mmHg 89%
    21:00 +13°C° 0.2 mm 3 mps 741 mmHg 91%
    22:00 +13°C° 0.2 mm 3 mps 741 mmHg 93%
    23:00 +13°C° 0.2 mm 3 mps 741 mmHg 94%
    Show more